User: anonymous   Login
Location: Edinburgh
(55.9500°N, 3.1600°W)
Time: 04:15:55
(UTC+00:00)
Language:

nSIGHT-1 - Orbit

View from above orbital plane
View from above orbital plane
View from above satellite
View from above satellite

Ground track
Ground track

The orbit data is extracted from the following two-line orbital elements,

1 42726U 98067MF  19320.27397286  .00039467  00000-0  21996-3 0  9999
2 42726  51.6329 254.9955 0005132  67.6825 292.4720 15.79008724141547
Epoch (UTC): 16 November 2019 06:34:31
Eccentricity: 0.0005132
inclination: 51.6329°
perigee height: 330 km
apogee height: 337 km
right ascension of ascending node: 254.9955°
argument of perigee: 67.6825°
revolutions per day: 15.79008724
mean anomaly at epoch: 292.4720°
orbit number at epoch: 14154

The dashed part of the orbit path shows where the satellite is in the earth's shadow,  

DLR